Hoquiam, WA

10:08 AM PST on January 21, 2017 (GMT -0800)
Hoquiam

Weather History for KHQM - February, 2014

Change the Weather History Date:

Friday, February 7, 2014

  Actual Average Record
Temperature  
Mean Temperature 29 °F 43 °F  
Max Temperature 36 °F 49 °F 63 °F (1963)
Min Temperature 21 °F 38 °F 21 °F (2014)
Degree Days  
Heating Degree Days 36 22  
Month to date heating degree days 217 154  
Cooling Degree Days 0 0  
Month to date cooling degree days 0 0  
Year to date cooling degree days 0 0  
Moisture  
Dew Point 17 °F    
Average Humidity 63    
Maximum Humidity 84    
Minimum Humidity 41    
Precipitation  
Precipitation 0.00 in 0.28 in 1.80 in (1996)
Month to date precipitation 0.04 1.98  
Year to date precipitation 6.54 12.31  
Sea Level Pressure  
Sea Level Pressure 29.81 in    
Wind  
Wind Speed 12 mph (ENE)    
Max Wind Speed 24 mph    
Max Gust Speed 29 mph    
Visibility 8 miles    
Events      
T = Trace of Precipitation, MM = Missing Value Source: NWS Daily Summary

Daily Weather History Graph

Daily Weather History Graph

Search for Another Location

Airport or City:

Trip Planner

Search our weather history database for the weather conditions in past years. The results will help you decide how hot, cold, wet, or windy it might be!

Date:

Astronomy

Feb. 07, 2014 Rise Set
Actual Time 7:32 AM PST 5:28 PM PST
Civil Twilight 7:00 AM PST 6:00 PM PST
Nautical Twilight 6:24 AM PST 6:36 PM PST
Astronomical Twilight 5:48 AM PST 7:11 PM PST
Moon 11:39 AM PST (2/7) 1:57 AM PST (2/7)
Length of Visible Light 10h 59m
Length of Day
9h 55m
First Quarter, 60% of the Moon is Illuminated
Feb 7
First Quarter
Feb 14
Full
Feb 22
Last Quarter
Mar 1
New
Mar 8
First Quarter

Hourly Weather History & Observations

Time (PST) Temp. Windchill Dew Point Humidity Pressure Visibility Wind Dir Wind Speed Gust Speed Precip Events Conditions
12:53 AM 24.1 °F 16.0 °F 14.0 °F 65% 29.82 in 8.0 mi NE 6.9 mph - N/A   Clear
1:53 AM 21.9 °F 14.5 °F 14.0 °F 72% 29.85 in 8.0 mi ENE 5.8 mph - N/A   Partly Cloudy
2:53 AM 25.0 °F 17.1 °F 17.1 °F 72% 29.87 in 9.0 mi NE 6.9 mph - N/A   Overcast
3:53 AM 24.1 °F 17.0 °F 17.1 °F 75% 29.87 in 9.0 mi NE 5.8 mph - N/A   Overcast
4:53 AM 24.1 °F 17.0 °F 18.0 °F 77% 29.88 in 8.0 mi ENE 5.8 mph - N/A   Overcast
5:53 AM 23.0 °F 14.7 °F 17.1 °F 78% 29.88 in 8.0 mi ENE 6.9 mph - N/A   Overcast
6:53 AM 21.9 °F 12.5 °F 18.0 °F 85% 29.89 in 8.0 mi NE 8.1 mph - N/A   Mostly Cloudy
7:53 AM 21.0 °F 12.4 °F 18.0 °F 88% 29.90 in 5.0 mi ENE 6.9 mph - N/A   Clear
8:53 AM 24.1 °F 14.4 °F 19.0 °F 81% 29.91 in 7.0 mi NE 9.2 mph - N/A   Clear
9:53 AM 27.0 °F 16.1 °F 17.1 °F 66% 29.90 in 8.0 mi NE 12.7 mph - N/A   Clear
10:53 AM 30.0 °F 18.3 °F 17.1 °F 59% 29.88 in 8.0 mi NE 17.3 mph 27.6 mph N/A   Clear
11:53 AM 34.0 °F 22.1 °F 18.0 °F 52% 29.83 in 9.0 mi NE 21.9 mph 26.5 mph N/A   Clear
12:53 PM 34.0 °F 22.1 °F 19.9 °F 56% 29.83 in 8.0 mi East 21.9 mph 29.9 mph N/A   Clear
1:53 PM 35.1 °F 25.9 °F 18.0 °F 50% 29.78 in 8.0 mi ENE 13.8 mph 26.5 mph N/A   Clear
2:53 PM 35.1 °F 25.2 °F 19.0 °F 52% 29.78 in 8.0 mi ENE 16.1 mph - N/A   Clear
3:53 PM 35.1 °F 24.5 °F 18.0 °F 50% 29.75 in 8.0 mi ENE 18.4 mph 26.5 mph N/A   Mostly Cloudy
4:53 PM 34.0 °F 23.8 °F 17.1 °F 50% 29.74 in 7.0 mi NE 16.1 mph - N/A   Partly Cloudy
5:53 PM 33.1 °F 23.4 °F 17.1 °F 52% 29.73 in 9.0 mi ENE 13.8 mph 21.9 mph N/A   Clear
6:53 PM 33.1 °F 23.0 °F 18.0 °F 54% 29.72 in 9.0 mi ENE 15.0 mph 23.0 mph N/A   Mostly Cloudy
7:53 PM 33.1 °F 23.4 °F 15.1 °F 48% 29.72 in 9.0 mi ENE 13.8 mph - N/A   Overcast
8:53 PM 33.1 °F 23.9 °F 12.0 °F 42% 29.73 in 10.0 mi ENE 12.7 mph - N/A   Mostly Cloudy
9:53 PM 34.0 °F 25.5 °F 12.9 °F 42% 29.75 in 9.0 mi NE 11.5 mph - N/A   Overcast
10:53 PM 32.0 °F 25.6 °F 16.0 °F 52% 29.76 in 9.0 mi ENE 6.9 mph - N/A   Overcast
11:53 PM 33.1 °F 24.4 °F 17.1 °F 52% 29.78 in 9.0 mi ENE 11.5 mph - N/A   Overcast